Greensboro, NC

1:42 AM EST on December 04, 2016 (GMT -0500)
Piedmont Triad International

Weather History for KGSO - February, 2015

Change the Weather History Date:

Saturday, February 21, 2015

  Actual Average Record
Temperature  
Mean Temperature 28 °F 44 °F  
Max Temperature 36 °F 54 °F 74 °F (2011)
Min Temperature 19 °F 34 °F 13 °F (1959)
Degree Days  
Heating Degree Days 37 21  
Month to date heating degree days 652 490  
Since 1 July heating degree days 2873 2713  
Cooling Degree Days 0 0  
Month to date cooling degree days 0 0  
Year to date cooling degree days 0 0  
Moisture  
Dew Point 16 °F    
Average Humidity 57    
Maximum Humidity 70    
Minimum Humidity 44    
Precipitation  
Precipitation T in 0.11 in 1.17 in (1993)
Month to date precipitation 1.45 2.15  
Year to date precipitation 3.49 5.21  
Snow  
Snow T in 0.10 in 2.90 in (1929)
Month to date snowfall 1.9 1.9  
Since 1 July snowfall 1.9 6.2  
Snow Depth 0.00 in    
Sea Level Pressure  
Sea Level Pressure 30.31 in    
Wind  
Wind Speed 7 mph (SSW)    
Max Wind Speed 13 mph    
Max Gust Speed 17 mph    
Visibility 10 miles    
Events      
T = Trace of Precipitation, MM = Missing Value Source: NWS Daily Summary

Daily Weather History Graph

Daily Weather History Graph

Search for Another Location

Airport or City:

Trip Planner

Search our weather history database for the weather conditions in past years. The results will help you decide how hot, cold, wet, or windy it might be!

Date:

Astronomy

Feb. 21, 2015 Rise Set
Actual Time 7:00 AM EST 6:06 PM EST
Civil Twilight 6:34 AM EST 6:32 PM EST
Nautical Twilight 6:04 AM EST 7:02 PM EST
Astronomical Twilight 5:34 AM EST 7:32 PM EST
Moon 8:37 AM EST (2/21) 9:32 PM EST (2/21)
Length of Visible Light 11h 58m
Length of Day
11h 06m
Waxing Crescent, 11% of the Moon is Illuminated
Feb 21
Waxing Crescent
Feb 25
First Quarter
Mar 5
Full
Mar 13
Last Quarter
Mar 20
New

Hourly Weather History & Observations

Time (EST) Temp. Windchill Dew Point Humidity Pressure Visibility Wind Dir Wind Speed Gust Speed Precip Events Conditions
12:54 AM 19.9 °F 12.1 °F 1.9 °F 46% 30.44 in 10.0 mi SSE 5.8 mph - N/A   Scattered Clouds
1:54 AM 19.9 °F 10.1 °F 1.9 °F 46% 30.43 in 10.0 mi South 8.1 mph - N/A   Partly Cloudy
2:54 AM 19.9 °F 11.1 °F 3.9 °F 50% 30.41 in 10.0 mi South 6.9 mph - N/A   Scattered Clouds
3:54 AM 19.9 °F 8.6 °F 3.9 °F 50% 30.40 in 10.0 mi South 10.4 mph - N/A   Overcast
4:54 AM 21.9 °F 11.7 °F 3.9 °F 46% 30.40 in 10.0 mi SSW 9.2 mph - N/A   Overcast
5:54 AM 23.0 °F 12.4 °F 3.9 °F 44% 30.40 in 10.0 mi SSW 10.4 mph - N/A   Overcast
6:54 AM 24.1 °F 13.1 °F 6.1 °F 46% 30.41 in 10.0 mi SSW 11.5 mph - N/A   Overcast
7:54 AM 25.0 °F 14.8 °F 7.0 °F 46% 30.40 in 10.0 mi SSW 10.4 mph - N/A   Overcast
8:54 AM 26.6 °F 17.5 °F 8.6 °F 47% 30.38 in 10.0 mi SSW 9.2 mph - N/A   Overcast
9:54 AM 28.0 °F 19.3 °F 12.0 °F 51% 30.42 in 10.0 mi SSW 9.2 mph - N/A   Overcast
10:11 AM 28.4 °F 19.7 °F 12.2 °F 51% 30.37 in 10.0 mi SSW 9.2 mph - N/A   Overcast
10:54 AM 28.9 °F 19.8 °F 15.1 °F 56% 30.38 in 10.0 mi South 10.4 mph - N/A   Overcast
11:37 AM 30.2 °F 21.9 °F 19.4 °F 64% 30.34 in 10.0 mi SSW 9.2 mph - N/A   Overcast
11:54 AM 30.9 °F 24.3 °F 19.9 °F 64% 30.35 in 10.0 mi SW 6.9 mph - N/A   Overcast
12:54 PM 32.0 °F 23.0 °F 21.9 °F 66% 30.33 in 10.0 mi SW 11.5 mph - N/A   Overcast
1:41 PM 33.8 °F 27.0 °F 21.2 °F 60% 30.26 in 10.0 mi SW 8.1 mph - N/A   Overcast
1:54 PM 32.0 °F 25.6 °F 21.0 °F 64% 30.28 in 10.0 mi SW 6.9 mph - N/A   Overcast
2:54 PM 34.0 °F 28.8 °F 24.1 °F 67% 30.25 in 10.0 mi SW 5.8 mph - N/A   Overcast
3:54 PM 35.1 °F 29.3 °F 25.0 °F 67% 30.22 in 10.0 mi South 6.9 mph - N/A   Overcast
4:01 PM 35.6 °F 29.9 °F 24.8 °F 65% 30.19 in 10.0 mi South 6.9 mph - N/A   Overcast
4:54 PM 36.0 °F 30.3 °F 25.0 °F 64% 30.20 in 10.0 mi South 6.9 mph - N/A   Overcast
5:54 PM 36.0 °F 31.1 °F 26.1 °F 67% 30.18 in 10.0 mi SSW 5.8 mph - N/A   Overcast
6:54 PM 35.1 °F - 26.1 °F 70% 30.19 in 10.0 mi Calm Calm - N/A   Overcast
7:54 PM 35.1 °F - 25.0 °F 67% 30.19 in 10.0 mi Calm Calm - N/A   Overcast
8:54 PM 35.1 °F 32.2 °F 26.1 °F 70% 30.19 in 10.0 mi NNE 3.5 mph - N/A   Overcast
9:54 PM 34.0 °F 31.0 °F 25.0 °F 70% 30.20 in 10.0 mi North 3.5 mph - N/A   Overcast
10:54 PM 34.0 °F - 25.0 °F 70% 30.20 in 10.0 mi Calm Calm - N/A   Overcast
11:54 PM 34.0 °F - 25.0 °F 70% 30.19 in 10.0 mi Calm Calm - N/A   Overcast